Wind_Speed
21 22 22 22 22 22 21 22 17 14 11 9 8 8 7 7 7 4 6 6 7 10 8 12 6 4 1 2 1 1 2 4 4 2 1 4 4 4 3 8 4 3 7 16 27
22 23 23 23 23 23 21 22 19 14 11 9 9 8 6 5 5 9 11 9 7 14 10 6 4 2 2 1 2 2 3 7 2 3 3 9 6 9 5 7 6 15 19 29 27
24 24 24 25 24 24 22 23 19 14 9 9 8 6 4 2 2 4 1 14 13 15 5 4 5 1 2 1 1 1 4 4 2 7 5 8 8 5 10 5 6 17 23 23 25
26 25 26 26 25 25 23 24 17 9 7 9 6 3 4 1 2 1 2 18 18 13 10 6 2 2 2 2 2 2 2 3 5 2 6 9 10 6 8 3 7 21 25 24 21
26 26 26 28 26 26 25 24 13 7 7 8 3 6 4 2 5 5 9 22 16 14 7 5 4 3 2 1 2 1 4 5 6 1 5 10 6 3 5 8 19 21 20 19 18
28 27 27 29 28 26 27 23 10 5 6 4 3 8 1 2 4 6 18 21 16 10 7 5 3 2 3 2 2 0 6 7 3 4 6 9 6 4 6 14 18 20 19 17 17
29 28 28 29 30 28 28 21 7 3 3 3 9 3 1 0 2 13 16 12 16 7 5 3 2 1 1 1 3 3 3 3 3 8 5 7 6 5 13 14 18 16 15 15 16
29 30 29 29 29 30 27 15 3 2 3 7 3 1 4 3 3 14 10 8 9 8 5 5 1 3 0 1 3 1 1 4 3 9 3 7 5 8 13 16 15 15 12 14 15
31 30 30 29 30 30 20 4 5 3 4 2 1 1 2 1 4 11 10 6 8 6 2 2 3 2 2 2 2 2 3 2 4 1 5 6 3 9 13 13 14 14 14 13 12
32 31 31 30 33 28 7 2 5 2 2 1 2 3 3 3 6 11 9 14 4 7 3 1 2 2 2 4 5 3 1 2 4 5 5 10 6 10 12 13 12 12 12 12 13
33 33 32 30 33 24 4 1 2 2 3 5 1 2 1 2 9 6 9 7 4 4 5 1 5 8 8 5 2 3 2 5 3 3 7 9 9 10 11 11 11 13 12 12 13
33 34 33 30 30 5 3 2 3 1 6 7 8 6 5 2 5 4 11 5 3 6 4 3 7 5 3 4 4 2 4 4 3 3 5 8 5 4 10 10 12 12 12 13 10
34 35 34 30 17 2 7 5 2 1 3 4 5 5 4 8 4 11 11 5 4 6 7 4 3 8 5 4 5 5 3 5 4 5 7 11 3 5 6 7 9 9 9 10 11
35 36 34 33 1 10 5 5 11 8 3 4 6 6 7 5 4 5 13 5 3 9 6 5 3 5 5 6 7 4 5 4 8 5 3 2 6 6 11 12 12 13 11 10 9
35 37 34 23 15 4 2 8 2 3 3 5 4 4 4 10 9 6 6 3 7 7 5 3 5 6 7 4 10 3 4 4 4 4 4 5 4 3 7 14 19 15 15 11 7
37 36 35 9 9 10 9 5 3 2 6 4 5 8 11 6 4 5 10 3 2 5 2 3 1 3 2 5 2 13 5 5 3 1 4 2 7 5 7 19 19 16 15 12 9
40 34 26 14 4 2 7 3 3 5 2 7 5 9 17 9 6 8 14 14 8 7 8 2 3 1 4 7 5 3 5 2 2 3 1 3 3 7 3 6 14 17 18 14 12
42 33 14 14 3 16 4 4 6 3 5 2 4 9 14 10 10 5 13 14 5 3 4 7 7 8 5 4 5 5 4 3 3 2 2 1 4 1 3 10 11 16 19 15 14
36 16 7 2 8 5 4 8 7 6 2 1 4 7 10 7 6 7 11 16 13 10 5 6 5 2 0 4 3 5 5 3 6 2 3 1 3 10 4 6 4 14 19 18 16
23 9 4 10 5 5 5 7 5 4 2 2 7 5 13 15 9 13 11 7 10 14 6 4 5 1 5 4 10 2 10 5 1 3 3 2 4 5 6 3 6 14 19 19 17
6 3 9 7 16 2 9 7 6 6 5 4 3 5 5 8 13 10 12 4 9 11 11 7 2 4 5 5 9 5 4 5 4 1 3 4 3 5 6 5 11 13 17 19 18
6 2 4 4 4 1 6 5 4 4 4 3 3 5 6 10 8 10 12 2 6 14 12 9 6 7 4 1 2 1 4 7 7 6 1 3 6 3 5 9 12 15 17 19 19
5 3 2 4 4 4 2 4 3 4 4 3 3 5 3 7 4 6 7 3 8 11 12 10 5 6 4 3 3 6 4 4 5 3 8 6 6 2 3 5 10 13 15 15 15
3 2 1 2 2 2 4 4 5 2 4 3 3 2 3 3 0 7 9 2 5 4 5 8 5 9 15 16 5 6 8 9 8 6 7 8 9 4 3 4 7 11 12 13 12
1 1 2 1 2 2 2 1 5 5 2 2 3 7 5 4 3 3 2 6 4 6 4 5 6 4 0 2 6 9 15 14 11 6 8 4 7 3 2 5 10 11 11 12 14
3 3 2 2 3 3 1 3 3 1 2 2 3 4 7 5 5 8 7 4 4 4 4 1 4 3 4 2 3 8 11 12 7 5 3 5 8 6 6 4 6 12 14 16 17
4 2 3 1 1 2 1 1 3 2 3 2 4 1 6 3 3 4 4 6 4 5 4 3 7 5 5 1 3 4 12 13 7 7 7 9 8 3 6 9 11 13 16 18 17
Wind_Direction
3 0 2 0 357 354 349 347 331 324 316 315 302 284 279 295 299 264 235 219 203 175 150 130 129 151 155 102 127 160 88 76 36 33 16 154 119 103 101 137 81 41 129 135 151
2 358 358 357 355 353 347 343 334 318 310 308 302 284 262 286 291 246 248 204 176 176 149 147 138 135 100 72 61 21 34 26 269 277 320 171 144 145 153 156 81 82 109 134 150
1 357 355 356 353 352 346 342 335 321 306 307 299 280 234 306 257 242 120 191 175 164 166 127 115 68 88 12 90 96 33 5 290 272 233 175 140 144 155 197 177 151 142 147 157
359 355 353 354 352 349 345 342 338 330 317 315 297 254 167 107 137 127 205 170 158 155 135 134 129 113 98 91 67 326 297 277 308 334 158 178 143 148 162 356 139 150 150 153 164
358 354 352 352 350 346 344 339 334 324 324 322 301 151 142 182 261 331 165 163 155 156 150 149 156 135 89 57 14 153 320 298 309 294 156 142 147 119 76 96 126 138 150 158 167
357 355 351 350 348 345 343 336 323 305 323 326 158 146 164 200 341 132 149 153 163 156 158 155 148 154 102 141 239 206 300 321 11 113 129 156 130 136 98 132 129 147 156 167 175
354 353 352 349 346 343 341 334 310 277 330 93 134 114 233 53 357 152 150 154 161 151 150 174 112 48 140 89 6 352 321 14 136 162 148 163 156 76 142 144 140 154 163 170 182
355 352 350 348 346 342 341 337 318 176 119 118 110 108 246 307 126 163 156 139 155 162 115 119 119 97 41 71 42 341 105 166 147 170 147 223 185 107 152 149 152 160 167 179 190
355 351 348 346 345 340 341 24 100 126 135 123 47 297 214 128 165 175 171 152 139 160 143 80 98 69 122 150 183 33 146 171 197 206 148 202 177 143 164 164 159 171 182 188 192
353 350 346 345 343 336 342 126 121 105 127 326 267 260 211 158 151 150 163 154 140 136 117 121 82 148 116 204 213 162 218 178 222 159 188 189 173 157 172 182 169 176 187 196 202
353 349 344 342 341 332 137 131 230 191 213 229 237 286 310 109 137 154 160 158 127 146 168 122 207 213 212 205 111 113 208 246 233 178 175 206 181 177 173 193 181 184 192 201 218
351 348 342 340 338 339 131 259 97 348 298 237 247 273 261 279 148 143 159 164 152 160 138 163 236 200 205 173 214 231 218 186 116 56 191 173 161 198 198 205 210 200 203 211 213
347 347 343 337 337 158 304 235 239 356 263 271 200 209 199 175 196 182 178 138 142 158 185 194 124 130 182 168 171 178 192 175 136 105 77 145 184 215 207 223 219 227 221 217 224
346 345 342 338 24 327 273 176 306 176 301 220 207 223 151 181 199 166 177 154 157 198 169 248 183 214 183 223 192 173 177 139 132 188 187 267 215 218 217 227 222 221 221 217 225
342 341 336 336 296 258 182 317 136 188 278 144 160 146 157 180 136 186 173 128 185 168 180 165 177 176 190 205 184 111 98 103 102 117 167 197 236 161 211 235 235 213 219 215 206
337 336 330 320 279 254 282 317 163 227 247 173 141 158 159 181 138 116 174 111 105 152 228 260 267 234 166 102 109 147 103 70 87 113 239 125 241 212 199 227 235 207 204 198 195
333 328 314 273 240 213 347 176 191 225 348 171 167 171 179 172 148 164 178 187 186 174 212 197 210 205 150 114 110 155 159 167 199 202 317 116 245 258 224 287 250 214 197 191 190
330 325 305 255 216 252 292 164 216 239 239 37 138 156 187 160 192 153 162 189 216 144 155 200 184 180 172 198 178 184 232 213 224 241 317 105 241 203 275 294 258 202 199 190 188
331 324 290 329 234 177 181 200 211 212 280 244 132 158 186 190 184 171 186 202 202 187 193 173 222 137 104 132 185 156 187 71 109 105 263 79 259 271 289 335 215 186 185 185 189
327 324 280 293 212 164 187 223 228 218 291 239 219 198 181 188 178 192 180 183 200 199 209 162 199 93 129 109 56 216 138 156 90 183 265 248 287 286 316 320 176 185 192 185 186
328 317 354 130 142 191 200 217 225 236 227 221 242 195 204 175 186 181 192 185 205 175 203 162 253 137 164 212 171 142 176 68 112 281 255 292 281 210 241 255 205 203 198 190 188
336 285 30 184 164 235 209 200 209 217 193 235 248 243 207 176 168 186 194 207 165 151 180 182 205 218 186 59 265 119 176 171 216 202 216 299 272 130 270 264 211 205 200 196 194
329 286 345 197 204 199 243 233 236 210 214 190 243 225 192 186 165 172 191 103 162 168 168 173 209 202 183 169 159 215 166 134 113 130 193 225 252 351 322 253 229 215 203 195 182
294 303 300 85 30 254 194 214 208 196 240 236 259 220 174 176 286 166 152 128 146 146 87 142 152 212 228 228 179 180 183 179 206 208 204 227 271 270 332 264 232 238 219 201 190
314 32 39 324 129 328 259 328 194 205 204 251 217 222 186 170 143 157 141 134 104 145 94 185 193 182 73 208 192 198 181 175 198 188 222 232 219 236 269 253 240 221 205 196 191
338 337 352 281 292 260 244 191 209 219 244 173 251 199 196 180 204 185 162 199 162 136 121 113 154 149 142 150 170 172 175 177 189 178 199 177 248 250 264 267 236 220 207 203 199
352 296 281 351 323 231 163 193 172 300 197 339 295 203 170 101 7 38 70 90 105 156 132 136 145 171 180 45 134 224 201 193 188 190 196 202 233 205 264 255 255 240 218 214 196
Height
801 797 793 790 787 783 779 775 771 768 767 766 766 766 766 766 766 767 766 761 761 765 767 769 771 771 771 769 770 771 785 795 791 788 783 772 777 778 778 784 787 789 793 799 812
801 797 793 789 785 782 778 773 769 766 765 764 763 763 764 765 765 763 757 758 760 763 766 767 768 769 769 770 771 774 785 787 777 771 774 772 775 779 784 786 795 797 801 806 813
800 796 792 788 784 780 776 771 767 764 763 762 761 761 763 763 764 754 752 755 759 762 764 766 767 767 771 771 774 777 783 777 773 769 766 771 778 775 781 791 786 797 802 809 814
799 795 791 787 782 778 774 770 765 763 762 760 759 760 761 762 771 752 752 754 758 762 764 765 766 771 776 777 773 781 772 773 770 768 769 772 770 779 779 782 779 792 798 806 813
799 794 790 785 781 776 772 767 764 762 761 759 758 759 761 762 756 751 750 754 758 761 763 765 767 770 778 774 774 779 774 769 766 765 765 767 775 779 786 783 786 795 805 809 813
798 793 789 784 778 774 769 765 762 761 760 758 758 759 761 762 752 751 752 755 757 760 763 764 765 765 772 775 778 774 774 770 766 766 767 772 780 777 792 789 793 799 803 808 812
796 792 787 782 777 772 767 762 760 760 760 759 759 760 760 754 752 753 755 756 758 760 763 765 765 766 769 775 770 773 780 768 771 769 773 771 785 790 788 789 796 800 804 808 811
795 790 785 780 775 770 765 760 759 760 760 760 761 761 756 751 751 753 755 757 759 761 762 764 765 766 769 770 775 781 781 790 774 769 774 772 795 791 787 790 798 800 804 807 810
793 788 783 778 773 767 763 760 760 760 761 761 762 762 754 751 752 752 754 756 759 761 763 764 765 771 772 781 788 787 796 795 786 773 775 776 791 788 786 789 797 799 801 804 808
791 786 781 776 771 765 762 761 761 761 762 762 762 763 750 748 748 751 754 756 757 761 765 767 770 777 783 784 801 797 796 796 795 781 779 783 786 787 787 789 796 798 801 803 804
789 783 778 774 768 763 762 763 765 764 762 751 750 750 745 746 747 751 752 755 756 760 774 774 780 786 777 779 782 789 797 798 789 779 782 782 786 787 788 789 793 797 799 800 801
787 781 776 771 765 761 761 761 759 762 759 747 749 748 745 744 749 749 751 756 760 772 772 778 782 770 774 780 785 790 796 793 786 783 781 792 798 793 789 788 787 791 795 797 801
786 780 773 768 762 762 761 759 758 758 760 747 744 743 741 743 746 747 748 753 763 774 775 780 775 768 774 780 786 786 786 789 787 788 788 792 805 800 791 789 787 788 790 793 797
783 778 772 765 765 761 759 757 756 756 768 752 745 736 738 738 748 740 743 748 761 770 775 775 766 772 777 779 774 785 776 779 785 790 803 795 811 804 792 790 789 786 788 789 793
780 775 771 768 764 761 757 756 754 756 792 743 741 730 733 738 738 745 741 746 762 767 771 771 769 774 777 768 766 779 775 782 789 795 798 804 806 790 797 795 783 785 785 786 790
776 772 767 764 761 755 754 754 756 775 789 746 733 739 741 738 741 742 745 744 749 763 766 764 757 759 757 765 766 774 779 787 793 795 811 810 807 796 797 780 769 776 781 784 789
770 765 762 761 755 752 753 753 775 785 741 745 740 736 735 745 747 746 753 759 765 782 780 769 763 756 753 769 771 773 781 808 816 814 817 814 812 792 780 776 771 774 776 781 786
763 757 751 750 749 751 754 757 786 754 749 730 734 737 744 741 744 749 755 764 760 762 775 779 787 762 753 758 768 777 777 799 831 824 814 818 812 784 775 771 769 766 770 779 785
757 750 747 746 746 749 751 767 758 751 737 737 736 743 745 740 740 748 751 754 749 754 769 780 777 756 755 755 759 784 787 784 808 829 819 810 797 775 774 772 770 768 772 778 782
757 751 746 744 745 749 750 757 747 738 734 733 741 734 745 741 745 747 755 741 746 745 742 763 778 761 765 755 766 766 777 794 797 827 831 809 812 795 775 775 775 773 773 774 779
759 748 745 740 745 747 750 746 742 731 732 735 736 737 735 739 734 744 744 737 733 745 743 754 767 773 765 766 767 780 781 793 788 802 810 817 801 771 773 771 773 770 770 773 777
764 749 746 745 745 755 747 743 735 729 726 728 729 728 732 732 737 736 736 734 728 733 750 746 754 772 768 764 763 764 767 769 785 811 811 807 794 767 772 768 765 764 766 768 771
767 759 745 744 743 745 744 737 732 729 728 727 728 724 723 729 740 732 734 729 730 732 742 747 761 777 779 771 768 768 773 776 783 787 806 803 787 768 768 768 765 764 766 770 774
769 751 744 744 750 744 740 736 734 725 727 725 725 722 725 730 731 734 733 732 730 733 742 738 758 754 766 756 751 774 773 775 766 783 784 786 776 769 767 770 769 769 767 771 775
771 761 765 747 747 748 746 740 734 732 728 727 727 725 724 735 733 732 731 731 731 739 741 738 753 760 762 756 754 753 761 771 771 771 778 771 780 766 766 764 760 762 767 771 775
773 769 765 758 759 753 750 742 737 735 734 729 731 722 723 728 720 729 726 730 727 736 739 746 761 759 765 761 757 761 761 762 767 774 777 777 776 760 759 763 764 761 763 766 769
779 778 775 761 753 750 745 744 740 741 730 729 729 728 728 729 725 724 724 724 724 729 741 746 756 759 768 770 765 775 761 759 761 761 760 778 761 757 759 761 758 756 757 758 762